Weather in Pylemets

Russia / Nenets Autonomous Okrug     67°24′37″N   52°15′24″E
temp.,
°C
wind,
m/s
gust,
m/s
humid.,
%
clouds,
%
prec.,
mm/h
press.,
hPa
HPBL,
m
27 february, sat
sat2700:00−18s71293100 0.1 1010350
03:00−19s61193100 0.1 1011298
06:00−21s6119588 0.0 1010219
09:00−21s6119479 0.0 1011259
12:00−19s7109295 0.0 1010357
15:00−18s6119298 0.0 1010363
18:00−17s61096100 0.3 1009368
21:00−16s5996100 0.8 1009333
28 february, sun
sun2800:00−15ssw5895100 0.6 1008355
03:00−15ssw4796100 0.9 1008227
06:00−18ssw469794 0.1 100894
09:00−19ssw469795 0.1 1008120
12:00−16ssw469577 0.0 1009222
15:00−14s369585 0.1 1009162
18:00−16s459780 0.0 100964
21:00−13ssw479687 0.1 1009121
1 march, mon
mon100:00−11sw589592 0.2 1008159
03:00−12ssw6109596 0.3 1006211
06:00−11ssw8129499 0.1 1002308
09:00−9ssw91593100 0.5 999486
12:00−7ssw101594100 1.0 995614
15:00−5ssw91495100 2.3 992624
18:00−5ssw81395100 1.9 989525
21:00−1w4897100 3.1 988285
2 march, tue
tue200:000wsw3697100 0.1 987246
03:00−4wsw469697 0.6 988109
06:00−9sw459473 0.0 98857
09:00−7sw469583 0.1 988109
12:00−6sw489563 0.0 988276
15:00−3ssw589381 0.1 988539
18:00−5s4896100 0.3 987202
21:00−6sse4796100 0.4 988182
3 march, wed
wed300:00−7se229799 0.4 98935
03:00−7n2296100 0.9 99045
06:00−8nnw6109498 0.6 991298
09:00−8nnw6119399 0.9 992574
12:00−8nw6109398 0.4 993518
15:00−9wnw599399 0.7 993350
18:00−10wnw4994100 0.0 993213
21:00−13w449690 0.0 99444